Weather in Buzău

Romania     45°09′01″N   26°49′10″E
temp.,
°C
wind,
m/s
gust,
m/s
humid.,
%
clouds,
%
prec.,
mm/h
press.,
hPa
HPBL,
m
29 may, sun
sun2900:00+16nne2694100 1.9 1011239
03:00+15nne3794100 10.6 1011400
06:00+14ne498990 0.0 1012469
09:00+14nne61078100 0.0 1014513
12:00+18ne6763100 0.0 1014951
15:00+19ene676244 0.1 10131021
18:00+19ne6867100 0.0 1012960
21:00+17nne597589 0.2 1011300
30 may, mon
mon3000:00+16e2691100 2.3 1012218
03:00+14ne36944 3.5 1010142
06:00+13nne359548 0.6 1009114
09:00+18ne337836 0.8 1009459
12:00+21ese326799 0.0 10101134
15:00+24n225740 0.3 10101230
18:00+24wnw22512 0.3 10101329
21:00+20wnw226798 0.3 101111
31 may, tue
tue3100:00+17nw33770 0.0 101330
03:00+16nnw22793 0.0 101323
06:00+16nnw227796 0.0 101516
09:00+21nw0160100 0.0 1016408
12:00+24sse225386 0.3 10161430
15:00+24ne225899 5.1 1017981
18:00+20n2582100 5.7 1017182
21:00+18n3685100 17.9 1018130
1 june, wed
wed100:00+17n347993 0.0 101961
03:00+15nne338189 0.1 101948
06:00+16ne367992 0.0 1019149
09:00+19ene236442 0.0 1020483
12:00+23s22546 0.0 10191086
15:00+26ssw44485 0.0 10171657
18:00+26sw344913 0.0 10161549
21:00+21wsw3368100 0.0 101631
2 june, thu
thu200:00+19nw337449 0.0 101734
03:00+19nnw2271100 0.0 101724
06:00+19n1271100 0.0 101728
09:00+22nne2464100 0.0 1018322
12:00+25ne43495 0.0 10181131
15:00+27e324415 0.2 10171767
18:00+26nnw225088 0.2 1016825
21:00+21nnw226933 0.7 101720